• Join FlightAware (Why Join?)
  • Login
  • US Flag 
08:06PM EST


 

Airport Tracker/Info


-or-


 

Live Flight TrackerFlight Track Log ✈ UAL4543 ✈ 11-Apr-2013 ✈ KRDU - KEWR

Flight Track Log - Related Links

Times and Time Zones

All times are in EDT time to prevent confusion due to time zone crossing. See the UAL4543 flight status page for this flight to view local times or setup timezone preferences in your user account.

Time Position Orientation Groundspeed Altitude Reporting Facility
EDT Latitude Longitude Course Direction KTS MPH feet Rate Location/Type
04:07PM 35.8664 -78.8139 11° North 170 196 1,400  Level Washington Center
04:08PM 35.8486 -78.8567 243° Southwest 195 224 3,400 2,333 Climbing Washington Center
04:09PM 35.9294 -78.8781 348° North 288 331 6,300 2,473 Climbing Washington Center
04:10PM 36.2045 -78.6528 19° North  Level FlightAware Approximate
04:10PM 36.0067 -78.8786 360° North 293 337 8,800  Level Washington Center
04:11PM 36.2896 -78.6201 15° North  Level FlightAware Approximate
04:11PM 36.0833 -78.8253 29° Northeast 288 331 10,900  Level Washington Center
04:12PM 36.3761 -78.5935 11° North  Level FlightAware Approximate
04:12PM 36.1619 -78.7667 31° Northeast 317 365 11,900  Level Washington Center
04:13PM 36.2661 -78.6989 28° Northeast 359 413 14,200 1,900 Climbing Washington Center
04:14PM 36.3508 -78.6403 29° Northeast 381 438 15,700 1,500 Climbing Washington Center
04:15PM 36.4611 -78.5775 25° Northeast 388 447 17,200 1,600 Climbing Washington Center
04:16PM 36.5725 -78.5378 16° North 400 460 18,900 1,850 Climbing Washington Center
04:17PM 36.6681 -78.4714 29° Northeast 400 460 20,900 1,700 Climbing Washington Center
04:18PM 36.7433 -78.3808 44° Northeast 393 452 22,300 1,450 Climbing Washington Center
04:19PM 36.8269 -78.2828 43° Northeast 398 458 23,800 850 Climbing Washington Center
04:20PM 36.9125 -78.1792 44° Northeast 409 471 24,000 400 Climbing Washington Center
04:21PM 37.0047 -78.0678 44° Northeast 432 497 24,600 950 Climbing Washington Center
04:22PM 37.0986 -77.9614 42° Northeast 445 512 25,900 1,150 Climbing Washington Center
04:23PM 37.2025 -77.8786 32° Northeast 445 512 26,900 545 Climbing Washington Center
04:24PM 37.3125 -77.8011 29° Northeast 445 512 27,000 50 Climbing Washington Center
04:25PM 37.4244 -77.7181 31° Northeast 455 524 27,000  Level Washington Center
04:26PM 37.5406 -77.6322 30° Northeast 466 536 27,000  Level Washington Center
04:27PM 37.6547 -77.5461 31° Northeast 472 543 27,000  Level Washington Center
04:28PM 37.7708 -77.4597 30° Northeast 477 549 27,000  Level Washington Center
04:29PM 37.8847 -77.3731 31° Northeast 477 549 27,000  Level Washington Center
04:30PM 38.0006 -77.2861 31° Northeast 477 549 27,000  Level Washington Center
04:31PM 38.1189 -77.1781 36° Northeast 482 555 27,000  Level Washington Center
04:32PM 38.2181 -77.0903 35° Northeast 482 555 27,000  Level Washington Center
04:33PM 38.3256 -76.9892 36° Northeast 476 548 27,000  Level Washington Center
04:34PM 38.4311 -76.8878 37° Northeast 476 548 27,000  Level Washington Center
04:35PM 38.5406 -76.7833 37° Northeast 481 554 27,000  Level Washington Center
04:36PM 38.6478 -76.6842 36° Northeast 486 559 27,000  Level Washington Center
04:37PM 38.7572 -76.5819 36° Northeast 486 559 27,000  Level Washington Center
04:38PM 38.8664 -76.4794 36° Northeast 481 554 27,000  Level Washington Center
04:39PM 38.9733 -76.3819 35° Northeast 486 559 27,000  Level Washington Center
04:40PM 39.0803 -76.2789 37° Northeast 480 552 27,000  Level Washington Center
04:41PM 39.1911 -76.1728 37° Northeast 485 558 27,000  Level Washington Center
04:42PM 39.2958 -76.0636 39° Northeast 485 558 27,000  Level Washington Center
04:43PM 39.3942 -75.9489 42° Northeast 480 552 27,000 -300 Level Washington Center
04:44PM 39.4944 -75.8308 42° Northeast 480 552 26,400 -1,250 Descending Washington Center
04:45PM 39.5906 -75.7153 43° Northeast 480 552 24,500 -2,100 Descending Washington Center
04:46PM 39.6864 -75.5969 44° Northeast 474 545 22,200 -2,350 Descending Washington Center
04:47PM 39.7781 -75.4889 42° Northeast 459 528 19,800 -2,450 Descending Washington Center
04:48PM 39.8697 -75.3806 42° Northeast 428 493 17,300 -2,950 Descending Washington Center
04:49PM 39.9528 -75.2775 44° Northeast 411 473 13,900 -2,350 Descending Washington Center
04:50PM 40.0294 -75.1822 44° Northeast 393 452 12,600 -1,250 Descending Washington Center
04:51PM 40.0981 -75.1006 42° Northeast 358 412 11,400 -800 Descending Washington Center
04:52PM 40.1622 -75.0214 43° Northeast 328 377 11,000 -600 Descending Washington Center
04:53PM 40.2222 -74.9475 43° Northeast 304 350 10,200 -500 Descending Washington Center
04:54PM 40.2758 -74.8708 47° Northeast 284 327 10,000 -99 Descending Washington Center
04:55PM 40.2358 -74.8142 133° Southeast 186 214 10,000  Level Washington Center
04:56PM 40.1883 -74.8583 215° Southwest 108 124 10,000 -101 Level Washington Center
04:57PM 40.1492 -74.9131 227° Southwest 157 181 9,800 -400 Descending Washington Center
04:58PM 40.1806 -74.9750 304° West 150 173 9,200 -397 Descending Washington Center
04:59PM 40.2408 -74.9256 32° Northeast 138 159 9,000 -100 Descending Washington Center
05:00PM 40.2717 -74.8411 64° Northeast 188 216 9,000  Level Washington Center
05:01PM 40.2153 -74.8364 176° South 93 107 9,000  Level Washington Center
05:02PM 40.1739 -74.8883 224° Southwest 142 163 9,000  Level Washington Center
05:03PM 40.1556 -74.9536 250° West 164 189 9,000  Level Washington Center
05:04PM 40.2139 -74.9611 354° North 110 127 9,000  Level Washington Center
05:05PM 40.2678 -74.8928 44° Northeast 167 192 9,000  Level Washington Center
05:06PM 40.2444 -74.8197 113° Southeast 135 155 9,000  Level Washington Center
05:07PM 40.1833 -74.8833 219° Southwest 209 241 9,000 -336 Level New York TRACON
05:08PM 40.2167 -74.9167 323° Northwest 250 288 8,200 -470 Descending New York TRACON
05:09PM 40.2833 -74.8833 21° North 265 305 8,100 -350 Descending New York TRACON
05:10PM 40.3333 -74.8000 52° Northeast 271 312 7,500 -650 Descending New York TRACON
05:11PM 40.3833 -74.7500 37° Northeast 247 284 6,800 -700 Descending New York TRACON
05:12PM 40.4500 -74.7333 11° North 235 270 6,100 -350 Descending New York TRACON
05:13PM 40.5000 -74.6833 37° Northeast 251 289 6,100 -150 Level New York TRACON
05:14PM 40.5000 -74.6000 90° East 260 299 5,800 -619 Descending New York TRACON
05:15PM 40.4667 -74.5333 123° Southeast 250 288 4,800 -895 Descending New York TRACON
05:16PM 40.4667 -74.4667 90° East 229 264 4,100 -730 Descending New York TRACON
05:17PM 40.4500 -74.3833 105° East 215 247 3,400 -496 Descending New York TRACON
05:18PM 40.4500 -74.3167 90° East 177 204 3,100 -300 Descending New York TRACON